This is the latest recevied weather packets stored in our database for station/object WK1F-2. If no packets are shown the sender has not sent any weather packets the latest 1 day(s).
| Time | Temp. | Humidity | Pressure | Rain* | Wind** | Luminosity | Snow |
|---|---|---|---|---|---|---|---|
| 1778050948 | 16.67° C | 88% | 1015.2 hPa | 0 mm | 2.24 m/s, 193° | - | - |
| 1778050648 | 16.67° C | 88% | 1015.3 hPa | 0 mm | 2.24 m/s, 175° | - | - |
| 1778050348 | 16.67° C | 88% | 1015.4 hPa | 0 mm | 1.34 m/s, 184° | - | - |
| 1778050048 | 16.67° C | 88% | 1015.5 hPa | 0 mm | 1.79 m/s, 192° | - | - |
| 1778049748 | 16.67° C | 88% | 1015.6 hPa | 0 mm | 0.89 m/s, 182° | - | - |
| 1778049448 | 16.67° C | 88% | 1015.5 hPa | 0 mm | 1.34 m/s, 199° | - | - |
| 1778049148 | 16.67° C | 88% | 1015.5 hPa | 0 mm | 1.34 m/s, 175° | - | - |
| 1778048848 | 16.67° C | 88% | 1015.5 hPa | 0 mm | 1.34 m/s, 158° | - | - |
| 1778048548 | 16.67° C | 87% | 1015.6 hPa | 0 mm | 1.79 m/s, 172° | - | - |
| 1778048248 | 16.67° C | 87% | 1015.8 hPa | 0 mm | 1.79 m/s, 173° | - | - |
| 1778047948 | 16.67° C | 87% | 1015.9 hPa | 0 mm | 1.79 m/s, 174° | - | - |
| 1778047648 | 16.67° C | 87% | 1015.8 hPa | 0 mm | 1.34 m/s, 179° | - | - |
| 1778047348 | 16.67° C | 87% | 1015.9 hPa | 0 mm | 1.34 m/s, 172° | - | - |
| 1778047048 | 16.67° C | 86% | 1015.9 hPa | 0 mm | 1.34 m/s, 182° | - | - |
| 1778046748 | 16.67° C | 86% | 1016 hPa | 0 mm | 1.34 m/s, 187° | - | - |
| 1778046448 | 16.67° C | 86% | 1016.2 hPa | 0 mm | 1.34 m/s, 196° | - | - |
| 1778046148 | 16.67° C | 86% | 1016.2 hPa | 0 mm | 1.34 m/s, 206° | - | - |
| 1778045848 | 16.67° C | 86% | 1016.3 hPa | 0 mm | 1.79 m/s, 206° | - | - |
| 1778045548 | 16.67° C | 85% | 1016.3 hPa | 0 mm | 1.34 m/s, 209° | - | - |
| 1778045248 | 16.67° C | 85% | 1016.2 hPa | 0 mm | 1.34 m/s, 203° | - | - |
| 1778044948 | 16.67° C | 85% | 1016.2 hPa | 0 mm | 1.34 m/s, 212° | - | - |
| 1778044647 | 16.67° C | 85% | 1016.2 hPa | 0 mm | 0.89 m/s, 194° | - | - |
| 1778044348 | 16.67° C | 84% | 1016.1 hPa | 0 mm | 1.79 m/s, 185° | - | - |
| 1778044047 | 16.67° C | 84% | 1016.1 hPa | 0 mm | 1.79 m/s, 197° | - | - |
| 1778043747 | 16.67° C | 84% | 1016.2 hPa | 0 mm | 1.79 m/s, 195° | - | - |
* Rain latest hour (hover to see other rain measurements)
** Current wind speed in m/s (hover to see current wind gust speed)